Location: Vancouver
(49.2500°N, 123.1330°W)
Time: 08:27:49
(UTC-07:00)

AO-27 - Visible Passes

Search period start: 17 April 2014 00:00
Search period end: 27 April 2014 00:00
Orbit: 786 x 799 km, 98.7° (Epoch: 16 April)

Date Brightness Start Highest point End Pass type
(mag) Time Alt. Az. Time Alt. Az. Time Alt. Az.
17 Apr 9.6 02:16:28 10° NE 02:20:01 18° E 02:21:16 17° ESE visible
17 Apr 7.6 03:54:55 10° N 04:00:05 71° WNW 04:02:03 38° SW visible
17 Apr 9.6 05:36:17 10° NNW 05:38:44 14° NW 05:41:11 10° W visible
18 Apr 10.2 01:50:33 10° E 01:50:49 10° E 01:51:06 10° E visible
18 Apr 7.8 03:26:08 10° NNE 03:31:20 69° ESE 03:33:03 42° S visible
18 Apr 9.1 05:06:33 10° N 05:10:23 21° WNW 05:13:50 12° WSW visible
19 Apr 8.6 02:57:35 10° NNE 03:02:27 40° E 03:04:03 32° SE visible
19 Apr 8.5 04:37:17 10° N 04:41:55 34° WNW 04:44:50 19° WSW visible
20 Apr 9.3 02:29:20 10° NE 02:33:27 23° E 02:35:02 20° ESE visible
20 Apr 7.9 04:08:15 10° N 04:13:20 56° WNW 04:15:49 29° SW visible
21 Apr 10.0 02:01:48 10° ENE 02:04:19 14° E 02:06:02 12° ESE visible
21 Apr 7.6 03:39:24 10° NNE 03:44:37 87° ESE 03:46:49 36° SSW visible
21 Apr 9.4 05:20:11 10° NNW 05:23:29 17° NW 05:26:47 10° W visible
22 Apr 8.2 03:10:44 10° NNE 03:15:48 51° E 03:17:48 33° SSE visible
22 Apr 8.8 04:50:45 10° N 04:55:04 27° WNW 04:58:35 14° WSW visible
23 Apr 9.1 02:42:19 10° NNE 02:46:51 30° E 02:48:47 23° SE visible
23 Apr 8.2 04:21:38 10° N 04:26:32 44° WNW 04:29:34 22° SW visible
24 Apr 9.7 02:14:21 10° NE 02:17:47 18° E 02:19:46 15° ESE visible
24 Apr 7.6 03:52:42 10° NNE 03:57:53 74° WNW 04:00:33 29° SSW visible
25 Apr 7.9 03:23:56 10° NNE 03:29:07 66° ESE 03:31:32 31° S visible
25 Apr 9.1 05:04:17 10° N 05:08:12 22° WNW 05:12:07 10° WSW visible
26 Apr 8.7 02:55:24 10° NNE 03:00:14 38° E 03:02:31 25° SE visible
26 Apr 8.5 04:35:02 10° N 04:39:43 35° WNW 04:43:18 16° WSW visible
